ASIASAT 7               
1 37933U 11069A   19258.86785406 -.00000343  00000-0  00000-0 0  9992
2 37933   0.0113 197.2154 0001716 299.0120 276.2384  1.00274393 20125
BREEZE-M R/B            
1 37934U 11069B   19258.72530959 -.00000130  00000-0  00000-0 0  9993
2 37934   1.9549 341.5276 3814834 220.4578 289.8001  1.71595891 47693
BREEZE-M DEB [TANK]     
1 37935U 11069C   19257.13694900 -.00000068  00000-0  25280-4 0  9996
2 37935  48.6751 341.3334 7057914 305.6390   7.8041  2.29406835 64346
BREEZE-M DEB            
1 38187U 11069D   19257.95150759 -.00000134  00000-0  00000-0 0  9998
2 38187   1.9700 337.1726 3807650 225.2046  96.3870  1.71974988 46608